Wind_Speed
64 64 65 63 61 59 58 58 57 55 54 55 54 51 46 46 46 44 42 41 40 38 37 36 35 33 32 30 30 29 28 28 28 27 26 26 25 24 23 23 23 23 23 23
66 66 62 61 61 60 60 60 58 57 56 57 57 55 51 48 47 45 44 43 42 40 40 39 38 36 35 34 32 32 31 31 30 30 29 28 27 27 26 25 25 26 25 25
67 63 61 62 62 61 61 59 57 57 57 58 59 59 55 51 50 49 47 45 44 43 41 41 41 39 38 37 36 35 35 34 33 32 32 30 29 28 28 28 28 28 27 27
66 64 64 64 63 61 61 58 56 56 57 59 59 62 58 54 53 51 49 48 46 45 44 43 42 42 41 40 40 39 38 37 36 35 34 33 32 30 31 31 31 30 30 30
67 65 65 65 63 60 59 57 57 56 57 58 60 63 62 56 55 52 51 49 48 47 47 46 45 44 43 43 42 41 41 40 39 38 37 36 35 33 34 34 33 33 33 33
65 63 63 61 60 60 58 57 57 57 58 61 60 62 64 58 55 53 52 50 49 49 49 49 49 49 47 46 45 44 44 43 43 42 41 39 37 36 36 36 36 36 37 37
64 64 63 62 61 61 60 59 59 59 61 64 60 62 65 58 55 54 52 51 51 50 49 50 50 50 50 49 48 48 47 46 46 45 44 43 41 41 40 40 39 39 39 39
64 65 63 63 62 60 60 60 62 62 62 60 60 63 61 57 54 53 52 51 51 51 50 50 50 51 51 51 50 50 50 49 49 49 48 47 46 45 44 43 43 43 43 43
62 62 61 61 59 58 59 60 58 60 61 61 61 61 59 56 55 53 52 51 50 51 50 50 51 51 52 52 52 52 52 52 51 51 51 50 50 49 48 48 47 47 47 47
58 58 58 58 58 59 58 56 57 59 59 60 61 60 57 54 54 53 52 51 51 51 51 52 52 53 52 52 52 53 53 53 53 53 53 53 52 52 51 51 51 50 50 50
57 58 57 57 59 58 58 57 58 59 59 58 57 57 53 51 51 52 52 52 52 51 50 51 52 53 54 54 54 54 54 54 54 54 54 54 54 54 54 54 53 53 54 54
55 57 58 57 55 56 57 58 58 59 59 59 59 57 51 49 49 50 51 51 51 51 51 51 51 51 52 53 54 55 55 56 56 56 56 56 57 57 57 56 56 56 55 55
54 56 56 56 55 55 56 56 57 58 58 58 58 55 51 50 50 50 50 50 50 49 49 50 50 51 51 52 53 54 55 55 57 58 58 58 58 58 58 57 57 57 56 56
53 57 56 56 55 53 54 55 55 55 56 57 56 52 49 50 51 51 51 51 52 51 51 51 51 51 52 53 53 54 55 55 56 57 58 59 60 59 59 59 58 58 58 58
52 55 55 54 54 54 55 55 54 55 55 55 53 52 50 50 51 51 52 53 53 53 52 52 51 51 51 52 53 54 55 55 56 57 57 58 59 60 60 59 59 60 60 59
50 52 53 54 54 55 57 57 57 56 56 55 54 53 51 51 51 52 53 54 54 54 53 52 52 52 52 51 52 53 54 54 55 56 57 57 58 59 59 60 60 60 61 61
50 50 51 53 54 55 59 56 56 56 55 55 55 52 50 52 52 52 53 55 55 55 54 54 54 54 54 54 53 54 54 55 55 56 57 58 59 60 60 60 61 61 61 61
47 47 48 51 52 56 55 53 53 54 54 54 54 52 52 52 52 52 53 54 54 54 54 55 56 56 56 55 55 56 56 56 56 56 57 58 59 60 60 60 60 60 60 60
45 45 45 48 51 51 49 48 49 50 51 51 52 53 53 53 53 54 54 54 55 56 56 56 56 56 56 57 57 58 58 58 57 57 58 59 60 60 60 61 61 61 61 61
44 45 46 46 48 49 46 44 45 47 49 46 48 49 50 51 53 53 53 54 55 56 57 57 57 56 57 57 57 58 58 59 59 59 59 60 61 61 61 61 61 62 62 62
43 44 46 45 46 46 43 42 43 46 44 42 44 45 46 49 51 50 51 52 53 54 54 55 56 56 56 57 57 58 59 60 61 62 62 62 63 63 62 62 63 63 63 63
43 44 45 45 47 46 42 41 42 42 40 40 41 42 43 45 46 48 49 50 51 52 53 54 55 55 56 56 57 58 58 59 60 61 61 62 62 63 63 64 64 64 65 65
43 43 44 44 42 41 40 40 40 41 41 40 41 41 42 42 44 45 47 48 50 51 51 52 54 55 56 57 58 58 58 59 59 60 60 62 63 63 64 64 65 66 66 66
41 41 41 41 39 39 39 40 41 41 41 40 40 41 41 41 42 43 44 46 47 49 50 51 52 54 55 56 57 58 58 59 60 61 62 62 63 64 65 65 66 67 67 67
38 38 40 40 39 39 39 40 41 41 41 41 42 42 43 44 44 45 45 46 46 48 49 51 52 53 53 54 55 56 57 59 60 61 62 63 64 64 65 65 66 67 67 66
37 38 39 39 38 39 39 40 41 41 42 43 44 45 46 46 47 48 48 49 50 50 51 52 53 53 54 54 55 56 58 59 60 61 62 62 62 63 64 64 65 65 66 66
Wind_Direction
235 236 238 241 243 245 246 247 247 248 248 249 250 249 247 248 249 249 251 251 251 252 253 254 254 256 257 258 258 258 259 261 262 263 264 265 265 268 270 272 273 272 272 274
235 236 238 240 241 243 245 247 248 248 248 250 251 250 248 248 249 249 250 252 253 253 253 254 254 255 256 257 258 258 259 260 262 263 264 265 266 268 270 270 271 271 272 274
237 238 238 239 240 242 244 246 248 249 250 251 252 252 250 248 249 250 250 252 253 254 254 254 254 255 255 256 257 258 259 260 262 263 264 265 265 266 268 268 268 269 271 273
236 235 236 237 239 241 243 245 247 249 250 250 251 253 250 249 248 250 252 252 254 255 254 254 254 254 254 255 256 257 258 260 261 262 264 264 264 265 266 267 268 269 270 271
235 235 237 238 239 241 243 243 245 247 249 251 250 253 251 249 250 251 252 253 254 254 255 254 254 254 254 254 254 256 258 259 260 261 262 263 264 264 265 267 268 268 269 271
235 235 236 237 237 238 240 242 244 245 247 249 250 252 253 251 252 253 253 254 254 254 254 254 254 254 254 254 255 256 257 258 259 260 260 262 263 263 264 266 267 268 269 270
231 233 234 235 235 235 237 238 240 242 244 248 250 252 254 254 254 254 254 255 255 254 254 254 254 254 255 255 255 256 256 257 258 259 260 260 261 262 263 264 266 267 268 269
232 232 233 234 235 236 237 238 240 243 247 250 250 252 255 255 255 255 255 255 255 254 254 254 253 253 253 254 255 255 256 257 258 259 259 260 260 261 262 264 265 266 267 268
232 235 234 235 235 236 237 238 241 245 247 250 251 253 255 254 255 256 256 256 255 254 253 253 253 253 254 254 254 255 256 256 257 258 259 260 261 261 262 263 264 265 266 267
230 233 233 234 234 235 237 239 240 241 244 248 251 252 254 255 256 256 255 255 255 254 255 254 254 254 254 254 255 255 255 256 256 257 259 260 260 261 261 262 264 265 266 267
228 230 232 232 232 234 235 235 237 240 243 246 250 252 253 254 255 255 254 255 255 255 256 256 256 255 254 254 255 256 257 257 257 258 259 260 261 261 262 262 264 265 266 267
227 229 232 233 234 235 236 236 237 239 243 246 249 251 251 253 255 256 256 256 255 255 255 255 255 255 255 255 256 257 258 258 258 258 259 260 261 262 263 263 264 265 266 267
226 228 230 231 231 230 232 234 237 240 243 246 248 249 248 250 253 255 256 257 257 255 254 254 254 254 254 255 256 256 257 258 259 259 260 261 262 263 263 264 264 265 266 267
228 230 230 232 234 235 235 235 237 239 242 244 246 248 247 248 251 253 255 256 257 258 257 256 256 256 256 256 256 257 258 258 259 260 260 261 262 263 263 264 264 265 266 267
228 230 231 232 234 237 237 237 237 238 241 245 246 248 247 249 252 253 254 256 258 260 260 260 259 258 258 258 258 258 259 259 259 260 261 262 263 263 264 264 265 265 266 267
229 231 232 232 233 237 239 239 241 242 243 246 248 249 249 251 253 255 256 258 259 260 261 262 261 261 260 260 259 259 260 260 260 261 262 263 263 264 265 266 266 266 267 267
230 232 234 235 236 239 240 240 243 245 246 249 250 250 251 251 253 256 258 259 260 261 261 262 263 262 262 260 260 260 260 260 261 261 261 262 263 264 265 266 267 268 268 268
231 234 238 239 239 242 243 244 246 247 248 251 252 251 252 253 255 256 257 259 261 263 263 263 263 263 263 262 261 260 260 259 260 261 261 262 263 264 265 266 266 267 268 268
228 232 237 240 242 245 244 244 247 249 250 252 254 254 254 256 256 256 258 260 261 261 261 262 262 262 262 263 263 262 261 261 261 261 262 262 263 264 264 265 266 267 267 268
231 234 238 241 244 247 246 247 249 252 253 252 254 256 256 257 256 257 259 260 262 262 262 262 262 262 262 262 262 263 263 262 262 263 263 264 264 265 265 266 267 268 269 269
235 236 239 242 246 249 248 248 249 251 254 254 254 254 255 257 259 260 260 261 261 262 263 263 264 263 263 263 263 264 264 264 265 265 266 266 267 267 267 267 268 269 269 270
238 240 242 244 247 250 250 250 251 253 254 253 254 255 257 258 260 261 261 262 263 263 264 264 264 264 264 265 265 265 266 266 267 267 266 267 267 268 269 269 270 270 270 271
240 243 244 246 250 251 249 251 253 254 254 255 256 257 259 260 261 262 263 263 264 264 265 265 265 266 266 267 267 267 267 268 269 269 269 269 269 270 270 271 272 272 273 273
242 243 244 245 247 248 249 252 254 256 257 257 258 259 259 261 262 263 264 265 265 265 266 267 268 268 269 269 270 270 270 270 270 271 271 272 271 272 272 273 274 274 274 274
243 244 245 247 248 248 250 253 255 256 258 259 260 261 262 263 264 265 266 267 268 268 268 269 270 271 271 271 271 271 271 272 272 272 272 273 273 273 273 274 274 275 275 275
244 245 248 248 248 250 253 255 256 257 258 259 260 261 262 264 266 267 268 269 269 269 270 271 272 272 272 272 272 271 272 272 273 272 273 273 274 274 274 274 274 274 275 275
Height
5716 5722 5730 5740 5747 5754 5757 5761 5766 5772 5776 5778 5782 5789 5796 5800 5803 5807 5811 5814 5817 5820 5823 5825 5827 5829 5831 5833 5834 5836 5837 5837 5838 5839 5839 5840 5841 5841 5842 5842 5842 5842 5842 5842
5703 5711 5725 5731 5735 5741 5746 5750 5757 5762 5765 5768 5771 5777 5785 5790 5794 5799 5803 5806 5810 5813 5815 5817 5820 5822 5824 5826 5828 5829 5830 5831 5832 5833 5834 5835 5835 5836 5837 5837 5836 5836 5836 5836
5693 5708 5715 5718 5724 5729 5735 5742 5748 5751 5755 5757 5760 5765 5774 5782 5785 5789 5794 5798 5801 5804 5807 5810 5812 5814 5817 5819 5821 5822 5823 5824 5825 5826 5827 5828 5829 5830 5830 5830 5830 5830 5830 5830
5681 5695 5699 5705 5712 5720 5726 5735 5738 5740 5743 5746 5750 5752 5764 5771 5775 5780 5785 5789 5792 5796 5798 5801 5803 5806 5808 5811 5812 5814 5815 5816 5818 5819 5821 5822 5822 5824 5824 5823 5824 5824 5824 5824
5670 5682 5687 5693 5705 5711 5718 5725 5727 5729 5731 5733 5738 5740 5750 5759 5765 5771 5776 5779 5783 5786 5789 5791 5794 5796 5798 5800 5803 5805 5806 5808 5809 5811 5813 5814 5815 5816 5816 5816 5817 5817 5817 5816
5661 5670 5675 5685 5695 5701 5707 5712 5715 5717 5718 5719 5729 5729 5734 5749 5757 5762 5766 5769 5772 5775 5778 5781 5783 5785 5788 5790 5793 5795 5797 5799 5800 5802 5803 5805 5807 5807 5808 5808 5809 5809 5809 5809
5646 5655 5663 5673 5681 5687 5694 5699 5702 5703 5703 5708 5719 5716 5725 5740 5746 5750 5755 5758 5760 5764 5767 5769 5772 5774 5777 5780 5782 5784 5787 5789 5790 5792 5794 5795 5797 5798 5799 5799 5800 5800 5800 5800
5636 5643 5653 5662 5670 5677 5683 5688 5691 5694 5696 5702 5706 5706 5720 5729 5733 5738 5742 5746 5748 5751 5755 5758 5760 5762 5765 5768 5770 5773 5775 5778 5779 5781 5783 5785 5786 5788 5789 5790 5790 5790 5790 5791
5626 5635 5646 5653 5661 5666 5671 5675 5683 5685 5686 5689 5692 5699 5709 5717 5721 5726 5730 5733 5736 5739 5743 5745 5748 5750 5753 5756 5759 5761 5763 5766 5768 5769 5771 5773 5774 5776 5778 5778 5779 5779 5780 5780
5618 5626 5634 5642 5648 5652 5660 5667 5670 5671 5674 5677 5681 5689 5699 5707 5710 5714 5717 5720 5723 5727 5730 5733 5736 5739 5741 5744 5746 5748 5751 5753 5755 5757 5759 5761 5762 5763 5765 5766 5767 5768 5768 5768
5609 5615 5622 5628 5633 5642 5649 5654 5657 5661 5664 5668 5671 5681 5690 5694 5698 5702 5705 5708 5711 5715 5718 5720 5723 5726 5728 5731 5733 5736 5738 5740 5742 5744 5746 5748 5749 5750 5752 5753 5754 5755 5755 5755
5599 5605 5610 5618 5626 5632 5637 5642 5647 5651 5654 5658 5662 5672 5680 5684 5686 5689 5692 5695 5699 5702 5705 5708 5710 5713 5716 5718 5721 5723 5725 5727 5729 5731 5733 5734 5736 5737 5738 5740 5741 5741 5742 5742
5590 5594 5600 5606 5613 5618 5623 5630 5636 5641 5644 5647 5651 5662 5671 5673 5675 5677 5680 5682 5685 5689 5692 5695 5698 5700 5703 5705 5707 5710 5711 5713 5715 5717 5719 5721 5722 5723 5725 5726 5726 5727 5728 5728
5581 5584 5591 5597 5604 5611 5616 5622 5626 5630 5631 5636 5642 5651 5658 5661 5664 5666 5668 5670 5672 5676 5679 5682 5684 5687 5690 5692 5694 5696 5698 5700 5701 5703 5705 5706 5708 5709 5710 5711 5712 5712 5713 5713
5569 5574 5582 5589 5595 5599 5604 5610 5614 5618 5622 5626 5634 5639 5646 5650 5652 5654 5655 5658 5660 5663 5666 5669 5671 5674 5677 5679 5681 5683 5685 5686 5688 5689 5691 5692 5693 5694 5695 5696 5697 5697 5698 5698
5559 5565 5572 5578 5584 5587 5591 5597 5602 5607 5612 5617 5622 5627 5636 5639 5639 5641 5643 5645 5647 5650 5653 5655 5658 5660 5663 5665 5667 5669 5670 5672 5673 5675 5676 5677 5678 5679 5680 5681 5681 5682 5682 5683
5552 5557 5562 5567 5574 5575 5577 5587 5593 5598 5603 5607 5610 5619 5624 5625 5627 5629 5630 5632 5634 5638 5640 5642 5644 5646 5648 5650 5652 5654 5656 5657 5659 5660 5661 5662 5663 5664 5665 5665 5666 5666 5667 5667
5543 5548 5553 5558 5562 5561 5573 5581 5583 5587 5591 5596 5600 5606 5610 5612 5615 5616 5617 5619 5622 5625 5627 5629 5631 5632 5634 5636 5637 5639 5641 5642 5643 5645 5646 5646 5647 5648 5649 5649 5650 5650 5651 5651
5535 5539 5543 5547 5549 5553 5562 5569 5574 5576 5580 5586 5589 5593 5596 5600 5600 5602 5605 5607 5609 5611 5613 5615 5617 5618 5620 5621 5622 5624 5625 5627 5628 5629 5630 5631 5631 5632 5633 5633 5633 5634 5634 5635
5526 5530 5535 5537 5540 5543 5555 5562 5564 5565 5566 5576 5577 5580 5584 5586 5586 5591 5594 5594 5595 5597 5599 5600 5602 5603 5605 5606 5607 5608 5610 5611 5612 5613 5613 5614 5615 5616 5616 5617 5617 5617 5617 5618
5517 5520 5524 5528 5530 5535 5545 5550 5552 5553 5560 5565 5566 5568 5570 5572 5574 5578 5579 5580 5581 5583 5584 5586 5587 5588 5589 5590 5591 5592 5593 5594 5595 5595 5596 5597 5597 5598 5599 5600 5600 5600 5600 5600
5509 5512 5516 5519 5522 5529 5537 5539 5541 5544 5549 5551 5553 5555 5557 5559 5561 5563 5565 5566 5567 5569 5570 5571 5572 5573 5573 5574 5575 5576 5577 5577 5577 5578 5579 5580 5580 5580 5581 5581 5582 5582 5582 5582
5500 5505 5508 5512 5517 5522 5526 5528 5530 5533 5536 5539 5541 5543 5545 5547 5548 5550 5551 5552 5553 5554 5555 5556 5557 5558 5558 5558 5558 5559 5560 5560 5560 5561 5561 5562 5562 5563 5563 5563 5563 5563 5563 5563
5492 5496 5499 5502 5507 5511 5515 5517 5519 5522 5525 5527 5529 5531 5533 5534 5535 5537 5538 5539 5540 5540 5541 5541 5541 5542 5542 5542 5542 5543 5543 5543 5543 5543 5544 5544 5544 5544 5544 5544 5544 5544 5543 5543
5483 5486 5489 5493 5497 5501 5504 5507 5509 5511 5513 5515 5518 5519 5521 5522 5523 5524 5525 5525 5526 5526 5526 5526 5526 5526 5527 5526 5526 5526 5526 5525 5525 5526 5525 5525 5525 5525 5525 5525 5525 5524 5524 5523
5475 5478 5481 5485 5489 5491 5494 5496 5498 5500 5501 5503 5505 5506 5507 5509 5510 5510 5511 5511 5511 5511 5511 5511 5511 5511 5510 5510 5510 5509 5508 5508 5507 5507 5507 5506 5506 5506 5505 5505 5506 5505 5504 5503